Wind_Speed
76 87 90 74 59 72 36 57 66 60 66 65 61 58 56 53 50 46 40 37 34 34 33 32 32 31 31 27 26 25 24 22 21 20 18 16 13 13 12 12 12 10 11 14 16
61 76 89 90 77 59 61 48 56 45 61 63 67 62 59 55 52 49 44 40 38 36 35 33 31 31 31 30 29 27 26 25 23 22 20 18 15 16 13 13 14 13 13 14 17
56 62 70 85 94 63 58 63 58 55 63 66 64 67 62 58 55 53 49 44 41 40 37 36 33 31 31 30 29 28 28 27 27 25 23 21 17 17 14 16 16 15 15 15 17
50 53 57 63 88 88 68 66 56 47 45 46 58 70 68 61 59 55 52 48 44 43 39 38 36 34 32 31 29 29 28 28 28 27 27 24 21 20 16 17 16 17 17 17 18
50 52 57 58 66 90 91 84 65 63 46 46 41 61 68 65 61 58 55 52 50 45 47 41 40 37 35 32 31 30 29 29 29 28 28 26 24 23 20 19 19 18 18 21 20
52 58 57 53 54 68 91 93 81 66 61 57 51 37 60 66 63 60 58 55 51 53 48 46 42 42 40 37 35 32 32 31 31 30 29 29 28 25 24 23 22 20 20 21 23
54 57 51 48 49 50 68 86 87 70 71 68 61 61 50 59 65 62 59 57 54 51 55 49 51 46 46 45 41 37 35 34 34 32 31 31 32 26 29 27 26 24 23 24 23
52 61 50 40 45 39 49 63 84 87 72 65 64 66 63 59 57 57 58 61 58 55 55 55 55 51 49 48 44 40 40 38 34 33 34 35 30 30 32 31 29 28 25 25 25
51 57 56 49 38 38 34 39 44 69 84 74 66 60 62 62 62 60 56 56 61 59 59 56 52 50 52 48 46 44 43 39 37 37 38 39 34 34 34 34 33 31 29 27 28
44 48 54 48 44 37 35 32 29 39 68 82 80 67 61 58 58 60 59 58 56 57 59 57 53 51 49 51 55 50 48 44 47 41 42 43 37 36 34 34 34 33 32 31 31
52 43 53 55 50 48 41 30 36 43 45 59 71 71 69 60 53 55 56 54 53 52 54 54 53 49 46 48 46 46 48 49 49 53 50 46 41 40 42 40 41 40 39 36 35
72 60 48 59 54 53 46 44 43 37 34 44 50 56 66 76 70 63 56 55 55 51 48 50 49 48 48 47 45 41 41 39 41 46 48 49 44 40 43 39 40 43 44 44 43
53 68 54 65 59 48 54 58 48 41 37 36 34 40 44 52 64 71 61 50 50 53 52 50 45 46 47 44 41 39 37 35 35 36 38 38 36 36 39 39 40 42 43 43 43
35 58 63 61 64 62 52 45 49 42 43 42 37 40 40 44 49 56 67 61 54 51 54 54 50 42 43 46 44 41 39 38 40 39 40 39 42 35 36 35 35 35 37 39 42
30 47 70 61 65 62 55 53 51 49 50 45 39 35 38 43 44 49 55 65 60 58 49 52 49 45 43 41 45 44 42 41 40 42 45 42 41 31 32 29 29 32 33 34 34
32 35 57 73 62 59 61 49 53 51 56 54 46 41 36 40 36 39 51 57 60 58 58 58 50 51 45 40 42 45 47 44 43 42 41 38 39 35 31 31 30 30 30 31 31
34 34 44 58 62 61 62 64 44 46 52 52 49 42 39 30 34 36 41 52 55 57 60 61 54 50 50 52 52 46 45 45 44 42 42 38 39 39 35 32 32 32 31 31 32
39 34 38 59 67 68 64 59 62 50 44 50 48 48 45 37 34 33 34 38 45 53 54 50 53 49 43 44 42 41 39 40 42 43 42 40 40 41 38 37 35 33 33 33 33
44 36 37 40 49 58 60 66 63 51 44 49 49 49 49 43 36 31 29 29 36 40 48 50 47 43 41 39 42 42 43 39 42 43 44 45 43 43 40 39 39 37 36 37 37
44 41 40 44 43 48 55 53 63 39 21 45 37 44 49 46 43 40 32 30 32 41 38 42 47 47 49 49 49 46 42 43 45 46 45 45 43 42 42 41 40 40 40 41 41
46 44 45 48 45 44 59 59 60 59 28 20 51 43 40 45 42 40 36 33 33 35 39 43 47 48 49 47 43 42 43 42 44 46 46 46 45 42 42 42 41 41 42 42 41
44 46 46 49 49 47 48 54 65 64 45 24 30 56 53 41 39 37 33 32 32 35 37 46 50 48 46 45 43 44 45 45 46 45 45 45 42 43 41 41 41 41 41 41 42
38 41 46 49 49 48 44 47 60 71 62 43 28 36 51 56 51 42 35 27 30 33 35 35 39 44 47 48 48 47 43 42 43 44 44 43 41 39 40 41 42 42 41 41 41
28 36 42 48 47 45 44 41 44 59 72 52 36 38 48 44 49 44 38 33 29 33 38 37 38 37 38 36 37 36 34 37 39 40 40 37 37 37 37 38 38 37 38 38 39
23 32 36 44 45 42 44 44 39 51 71 62 44 41 47 51 51 46 44 41 32 29 40 41 41 40 40 40 38 38 39 38 38 36 37 32 31 29 34 35 39 40 38 38 39
32 26 23 33 42 40 44 42 40 46 66 62 39 41 44 56 52 44 43 41 37 36 35 35 40 39 40 41 42 40 39 39 39 38 32 33 31 31 35 40 40 39 39 42 36
26 30 33 32 39 41 36 37 32 35 43 68 50 38 38 45 51 46 35 35 32 33 32 36 36 37 38 37 41 42 39 38 35 35 32 33 25 35 34 34 37 39 37 29 30
Wind_Direction
226 220 213 207 202 208 195 201 215 228 224 219 220 219 218 223 224 226 228 214 220 222 222 221 222 220 223 225 226 226 229 237 240 242 245 247 251 251 250 261 265 262 252 238 232
219 226 219 212 207 198 200 197 198 199 224 224 222 219 218 219 222 223 222 225 219 224 223 222 222 224 224 226 230 231 228 233 240 245 249 254 249 247 248 264 267 270 261 248 240
221 227 223 221 215 200 195 202 210 214 210 216 224 221 219 217 219 219 219 218 219 225 223 222 222 224 227 225 226 227 229 230 234 242 247 251 246 245 252 260 268 271 271 258 251
217 220 226 227 224 210 205 196 210 202 183 197 217 224 218 218 218 218 217 215 216 219 225 224 222 224 227 227 226 224 224 228 230 233 240 243 243 245 249 260 267 271 275 269 257
212 225 227 222 224 223 214 211 212 217 214 209 215 218 217 215 218 218 218 218 217 217 220 227 227 224 226 228 229 228 227 226 228 231 236 243 246 251 254 260 265 267 267 271 265
201 218 218 217 221 225 223 221 213 213 203 217 216 214 216 218 216 218 221 222 220 221 217 223 227 229 229 231 233 232 233 233 235 235 238 245 251 255 260 260 262 265 265 263 268
202 209 219 219 217 224 224 226 221 208 211 212 209 226 216 214 220 220 220 224 225 224 227 221 224 227 229 235 237 237 236 238 238 243 245 249 251 262 262 264 266 265 263 263 263
198 204 208 208 212 222 230 225 225 221 212 214 217 222 222 220 221 222 224 223 225 227 230 231 230 229 228 231 233 238 241 242 243 245 248 251 251 255 260 264 266 269 267 265 264
203 206 209 215 216 216 223 229 228 228 226 220 213 213 214 219 222 223 224 226 228 226 231 233 234 239 229 227 232 236 242 247 249 249 252 253 250 252 255 261 268 270 272 271 267
200 202 201 211 217 210 215 215 227 234 227 225 226 220 216 212 215 221 224 227 229 230 232 236 236 239 240 240 237 242 247 249 248 247 249 249 251 252 256 258 262 267 270 270 268
215 201 204 196 205 200 201 195 212 237 229 221 229 234 229 226 224 222 222 223 225 230 231 234 237 238 242 241 239 239 240 246 246 245 247 252 252 256 257 258 262 262 265 267 271
227 221 206 199 206 214 202 192 219 225 226 223 223 228 229 231 233 233 229 229 228 229 230 230 233 233 235 233 236 236 236 239 239 242 247 251 254 254 258 255 255 257 260 261 262
231 227 211 206 198 191 195 194 208 217 224 223 225 228 228 230 231 229 229 230 231 232 234 236 234 235 236 240 241 244 245 246 247 244 247 249 253 253 257 259 257 257 259 261 261
219 225 217 202 202 197 192 204 207 211 220 223 224 224 223 224 228 229 229 232 228 229 231 234 231 231 237 241 238 243 245 245 251 247 247 251 255 251 250 258 262 263 263 265 263
214 215 220 208 201 200 192 202 206 211 222 220 222 222 223 219 223 227 222 224 229 230 228 232 236 232 233 239 246 245 244 249 248 249 248 250 255 246 252 255 259 262 268 269 270
215 214 214 221 200 195 191 192 202 205 208 216 217 220 221 218 223 222 224 223 226 227 229 235 232 231 226 233 241 244 246 248 253 247 247 247 252 252 247 249 256 265 268 270 270
214 212 213 218 221 200 190 193 194 202 210 218 216 212 218 219 223 220 223 226 227 230 232 233 232 235 239 241 240 243 242 245 246 246 247 248 250 257 255 249 253 259 262 265 268
219 213 209 218 218 213 203 199 202 200 202 212 216 217 220 220 212 221 227 225 226 228 228 233 235 236 235 240 233 235 237 239 241 242 246 249 249 256 258 260 260 260 261 263 267
220 217 214 214 222 223 223 219 202 207 215 211 218 221 216 209 216 221 224 223 222 225 227 229 226 227 223 222 224 228 232 237 243 246 248 250 253 259 261 262 264 264 263 266 269
220 221 217 215 214 213 205 224 218 195 188 209 208 213 216 217 224 221 226 226 222 221 219 217 218 221 223 226 229 231 232 236 242 248 252 254 254 256 260 262 266 271 271 269 269
217 221 218 213 212 214 218 224 223 201 184 191 219 209 210 215 218 223 224 226 227 229 226 220 217 220 223 227 231 236 238 241 245 248 251 253 255 258 262 266 269 271 276 279 279
215 220 217 213 213 216 217 218 221 206 197 197 221 224 217 213 214 214 219 224 227 233 234 228 224 228 231 233 235 237 240 241 242 245 249 254 258 265 268 270 274 276 276 276 278
213 215 217 216 215 216 220 221 226 219 209 208 206 220 220 222 217 219 222 227 226 230 236 234 224 225 228 229 230 233 236 241 246 248 248 252 257 260 265 269 271 273 277 281 279
203 212 217 218 216 217 220 224 223 226 221 212 208 201 214 213 211 213 219 222 222 224 224 228 225 225 228 233 234 237 240 243 244 242 245 247 253 260 264 268 275 280 279 282 286
209 218 219 223 221 220 221 222 226 225 223 219 199 197 206 216 215 220 223 220 226 229 223 225 231 234 235 234 233 234 239 241 240 244 247 250 255 266 269 273 270 273 281 281 280
214 220 221 219 220 221 222 221 223 229 225 215 205 193 205 218 220 226 226 226 231 234 231 232 233 239 241 238 239 238 236 240 239 241 245 256 252 267 265 266 273 278 278 277 282
214 224 225 220 222 224 227 224 223 228 233 214 202 199 203 206 213 216 201 213 217 216 223 237 240 235 237 239 236 235 233 236 248 251 255 250 258 262 271 272 272 272 280 284 284
Height
5655 5666 5676 5691 5702 5712 5716 5725 5737 5746 5752 5762 5770 5779 5786 5792 5798 5803 5809 5815 5819 5824 5828 5832 5835 5839 5843 5847 5852 5855 5859 5861 5864 5866 5868 5869 5870 5872 5873 5873 5873 5875 5876 5877 5878
5645 5653 5664 5678 5686 5700 5709 5714 5726 5727 5740 5750 5760 5769 5777 5784 5791 5798 5805 5810 5815 5820 5824 5827 5831 5835 5839 5843 5848 5851 5855 5857 5860 5863 5865 5867 5867 5870 5871 5871 5871 5872 5873 5874 5876
5639 5644 5652 5662 5675 5687 5698 5707 5714 5725 5724 5738 5749 5759 5767 5775 5783 5790 5797 5805 5810 5815 5819 5823 5826 5831 5835 5838 5842 5847 5850 5854 5856 5859 5861 5864 5866 5868 5869 5868 5869 5869 5869 5871 5872
5629 5636 5645 5652 5662 5674 5686 5693 5702 5711 5716 5725 5736 5746 5756 5766 5775 5783 5791 5798 5804 5810 5814 5818 5822 5826 5830 5834 5837 5842 5845 5848 5852 5854 5856 5859 5862 5865 5866 5867 5866 5866 5866 5866 5868
5620 5630 5637 5645 5652 5662 5673 5678 5690 5700 5708 5720 5727 5734 5745 5755 5766 5775 5783 5790 5797 5802 5808 5813 5817 5820 5825 5829 5833 5837 5841 5843 5846 5848 5851 5854 5857 5861 5862 5863 5862 5863 5863 5862 5864
5610 5623 5629 5637 5645 5649 5660 5669 5679 5692 5699 5710 5720 5728 5737 5747 5756 5766 5775 5783 5790 5795 5800 5806 5810 5814 5819 5823 5827 5832 5835 5839 5841 5844 5846 5848 5850 5855 5857 5857 5858 5858 5859 5859 5859
5603 5617 5622 5629 5638 5644 5650 5660 5670 5680 5691 5702 5709 5721 5730 5738 5747 5756 5766 5774 5782 5788 5793 5798 5803 5807 5813 5817 5821 5826 5830 5833 5836 5839 5841 5842 5845 5849 5849 5851 5853 5853 5854 5854 5855
5592 5606 5615 5623 5632 5639 5645 5650 5660 5674 5683 5692 5700 5709 5721 5730 5739 5748 5757 5765 5773 5779 5784 5790 5796 5801 5806 5811 5815 5819 5823 5826 5831 5833 5835 5837 5843 5841 5842 5843 5845 5847 5848 5849 5850
5585 5597 5607 5618 5628 5636 5642 5647 5652 5660 5671 5681 5691 5699 5707 5721 5731 5740 5748 5756 5763 5769 5775 5781 5788 5793 5800 5804 5808 5811 5815 5820 5824 5826 5828 5829 5836 5835 5837 5838 5838 5840 5842 5843 5843
5577 5588 5599 5612 5622 5632 5638 5645 5647 5646 5655 5669 5680 5692 5704 5712 5720 5729 5737 5746 5753 5760 5767 5773 5779 5785 5791 5796 5800 5805 5809 5813 5816 5818 5818 5820 5828 5829 5830 5832 5833 5833 5834 5835 5836
5571 5581 5591 5604 5614 5624 5633 5638 5641 5639 5649 5661 5675 5683 5696 5704 5710 5719 5727 5735 5743 5750 5757 5765 5771 5777 5783 5786 5790 5794 5798 5802 5806 5809 5811 5813 5820 5822 5821 5824 5826 5826 5827 5827 5828
5562 5572 5584 5595 5605 5614 5623 5631 5634 5643 5647 5655 5663 5671 5679 5689 5700 5709 5718 5726 5734 5742 5749 5756 5762 5769 5773 5777 5782 5786 5790 5794 5797 5800 5803 5805 5811 5813 5812 5817 5817 5817 5818 5819 5819
5553 5563 5575 5586 5595 5605 5617 5624 5627 5636 5640 5647 5656 5663 5670 5678 5688 5699 5708 5717 5725 5733 5740 5747 5755 5759 5763 5768 5773 5778 5782 5786 5789 5792 5794 5798 5802 5804 5805 5806 5807 5807 5808 5810 5809
5546 5553 5564 5574 5586 5597 5609 5616 5622 5630 5636 5639 5648 5655 5661 5669 5677 5686 5697 5708 5717 5724 5730 5735 5744 5750 5755 5760 5765 5770 5775 5778 5782 5784 5785 5790 5790 5797 5797 5798 5798 5799 5800 5799 5800
5539 5546 5556 5567 5578 5590 5601 5609 5618 5625 5626 5632 5638 5648 5655 5663 5671 5676 5687 5697 5707 5717 5722 5730 5737 5743 5749 5754 5757 5761 5766 5769 5772 5773 5776 5781 5782 5791 5790 5790 5791 5791 5791 5791 5791
5533 5538 5549 5558 5570 5582 5592 5605 5609 5612 5612 5621 5631 5640 5649 5656 5663 5670 5679 5687 5697 5705 5712 5718 5727 5733 5739 5743 5748 5753 5757 5761 5763 5765 5767 5773 5774 5777 5783 5784 5784 5783 5782 5783 5783
5528 5534 5541 5549 5563 5571 5581 5593 5596 5595 5605 5616 5626 5637 5646 5653 5658 5664 5672 5679 5687 5695 5702 5708 5717 5724 5730 5734 5739 5746 5750 5752 5755 5756 5758 5764 5765 5767 5772 5776 5777 5776 5776 5775 5774
5518 5529 5536 5544 5551 5558 5569 5577 5583 5592 5601 5610 5621 5628 5638 5647 5652 5660 5666 5672 5678 5686 5693 5701 5710 5716 5720 5725 5732 5737 5740 5743 5744 5747 5750 5754 5757 5758 5762 5764 5767 5768 5768 5767 5767
5512 5522 5530 5537 5542 5548 5560 5563 5571 5587 5596 5606 5612 5620 5628 5638 5648 5654 5662 5667 5673 5680 5686 5692 5698 5706 5712 5717 5722 5726 5729 5736 5738 5739 5742 5744 5749 5751 5752 5754 5755 5757 5758 5758 5757
5506 5515 5523 5529 5533 5541 5551 5554 5566 5582 5591 5600 5607 5614 5624 5633 5641 5648 5654 5661 5665 5671 5676 5682 5688 5696 5702 5707 5712 5717 5723 5726 5728 5731 5733 5736 5739 5741 5742 5744 5745 5745 5745 5747 5747
5498 5505 5512 5520 5528 5533 5538 5548 5559 5572 5583 5592 5600 5607 5618 5627 5636 5644 5650 5656 5660 5663 5668 5673 5680 5688 5692 5697 5705 5710 5714 5719 5722 5723 5724 5725 5728 5730 5732 5732 5733 5733 5733 5733 5733
5491 5498 5505 5512 5520 5526 5534 5543 5553 5564 5576 5586 5593 5600 5612 5622 5629 5636 5643 5648 5655 5659 5662 5665 5670 5677 5685 5690 5694 5698 5702 5706 5709 5713 5715 5716 5719 5719 5721 5721 5721 5722 5722 5723 5723
5487 5493 5498 5504 5512 5521 5531 5539 5546 5557 5567 5579 5586 5594 5603 5613 5620 5629 5637 5642 5647 5652 5656 5661 5664 5669 5674 5680 5683 5687 5693 5699 5702 5704 5707 5709 5712 5713 5713 5712 5712 5712 5712 5713 5712
5485 5488 5493 5499 5509 5518 5526 5533 5540 5549 5559 5573 5581 5588 5596 5604 5614 5622 5628 5634 5639 5643 5647 5651 5656 5661 5668 5674 5679 5682 5687 5690 5692 5694 5697 5703 5702 5704 5703 5702 5703 5704 5703 5702 5702
5478 5485 5495 5501 5507 5515 5521 5528 5534 5541 5553 5566 5574 5579 5588 5597 5606 5615 5621 5627 5632 5636 5640 5645 5649 5655 5660 5664 5668 5673 5677 5680 5683 5688 5689 5695 5696 5697 5694 5693 5693 5694 5695 5694 5693
5476 5483 5490 5497 5502 5506 5511 5522 5530 5535 5546 5562 5573 5575 5582 5592 5604 5614 5619 5623 5628 5631 5635 5639 5643 5646 5652 5656 5660 5664 5670 5673 5675 5677 5683 5685 5690 5686 5684 5683 5686 5687 5685 5684 5684
5474 5479 5484 5489 5494 5501 5511 5520 5528 5533 5539 5555 5563 5564 5573 5587 5594 5601 5604 5611 5618 5622 5627 5633 5637 5640 5645 5648 5651 5657 5664 5665 5669 5671 5675 5676 5680 5675 5677 5677 5676 5675 5675 5675 5673